Weather History for Pinedale, WY

Change the Weather History Date:

Sunday, March 30, 2014

  Actual Average (KBPI) Record (KBPI)
Temperature  
Mean Temperature 36 °F 33 °F  
Max Temperature 44 °F 47 °F 63 °F (2004)
Min Temperature 28 °F 18 °F -13 °F (1987)
Degree Days  
Heating Degree Days 29 32  
Month to date heating degree days 1140  
Since 1 July heating degree days 8663  
Cooling Degree Days 0 0  
Month to date cooling degree days 0  
Year to date cooling degree days 0  
Moisture  
Dew Point 28 °F    
Average Humidity 78    
Maximum Humidity 100    
Minimum Humidity 57    
Precipitation  
Precipitation 0.00 in 0.02 in 0.08 in (2008)
Month to date precipitation 0.42  
Year to date precipitation 1.08  
Sea Level Pressure  
Sea Level Pressure 29.68 in    
Wind  
Wind Speed 8 mph (SSW)    
Max Wind Speed 25 mph    
Max Gust Speed 32 mph    
Visibility 10 miles    
Events Snow , Thunderstorm    
T = Trace of Precipitation, MM = Missing Value Source: NWS Daily Summary

Daily Weather History Graph

Daily Weather History Graph

Search for Another Location

Airport:

Trip Planner

Search our weather history database for the weather conditions in past years. The results will help you decide how hot, cold, wet, or windy it might be!

Date:

Astronomy

Mar. 30, 2014 Rise Set
Actual Time 7:04 AM MDT 7:43 PM MDT
Civil Twilight 6:36 AM MDT 8:11 PM MDT
Nautical Twilight 6:02 AM MDT 8:45 PM MDT
Astronomical Twilight 5:27 AM MDT 9:20 PM MDT
Moon 6:52 AM MDT (3/30) 8:00 PM MDT (3/30)
Length of Visible Light 13h 35m
Length of Day
12h 38m
Waning Crescent, 0% of the Moon is Illuminated
Mar 30
Waning Crescent
Mar 30
New
Apr 7
First Quarter
Apr 15
Full
Apr 22
Last Quarter

Hourly Weather History & Observations

Time (MDT) Temp. Windchill Dew Point Humidity Pressure Visibility Wind Dir Wind Speed Gust Speed Precip Events Conditions
12:17 AM 33.8 °F - 26.6 °F 75% 29.88 in 10.0 mi Calm Calm - N/A   Mostly Cloudy
12:35 AM 33.8 °F 29.6 °F 26.6 °F 75% 29.87 in 10.0 mi SSE 4.6 mph - N/A   Overcast
12:55 AM 33.8 °F 28.6 °F 24.8 °F 70% 29.87 in 10.0 mi SE 5.8 mph - N/A   Mostly Cloudy
1:15 AM 33.8 °F 29.6 °F 26.6 °F 75% 29.85 in 10.0 mi ESE 4.6 mph - N/A   Overcast
1:35 AM 32.0 °F 27.5 °F 26.6 °F 80% 29.85 in 10.0 mi East 4.6 mph - N/A   Scattered Clouds
1:55 AM 30.2 °F 25.4 °F 24.8 °F 80% 29.84 in 10.0 mi East 4.6 mph - N/A   Clear
2:15 AM 30.2 °F 25.4 °F 24.8 °F 80% 29.83 in 10.0 mi ESE 4.6 mph - N/A   Clear
2:35 AM 30.2 °F 25.4 °F 24.8 °F 80% 29.82 in 10.0 mi ESE 4.6 mph - N/A   Mostly Cloudy
2:55 AM 32.0 °F 28.7 °F 24.8 °F 75% 29.81 in 10.0 mi SE 3.5 mph - N/A   Scattered Clouds
3:15 AM 32.0 °F - 24.8 °F 75% 29.80 in 10.0 mi Calm Calm - N/A   Mostly Cloudy
3:35 AM 30.2 °F - 24.8 °F 80% 29.79 in 10.0 mi Calm Calm - N/A   Overcast
3:55 AM 28.4 °F - 26.6 °F 93% 29.78 in 10.0 mi Calm Calm - N/A   Overcast
4:15 AM 30.2 °F - 26.6 °F 86% 29.77 in 10.0 mi Calm Calm - N/A   Mostly Cloudy
4:35 AM 28.4 °F - 26.6 °F 93% 29.77 in 10.0 mi Calm Calm - N/A   Scattered Clouds
4:57 AM 28.4 °F - 26.6 °F 93% 29.76 in 10.0 mi Calm Calm - N/A   Scattered Clouds
5:15 AM 28.4 °F - 26.6 °F 93% 29.76 in 10.0 mi Calm Calm - N/A   Scattered Clouds
5:35 AM 30.2 °F - 26.6 °F 86% 29.75 in 10.0 mi Calm Calm - N/A   Scattered Clouds
5:55 AM 28.4 °F - 26.6 °F 93% 29.75 in 10.0 mi Calm Calm - N/A   Overcast
6:15 AM 30.2 °F 26.7 °F 26.6 °F 86% 29.74 in 10.0 mi East 3.5 mph - N/A   Overcast
6:35 AM 30.2 °F 24.3 °F 26.6 °F 86% 29.73 in 10.0 mi ESE 5.8 mph - N/A   Overcast
6:55 AM 30.2 °F 25.4 °F 26.6 °F 86% 29.73 in 10.0 mi ESE 4.6 mph - N/A   Mostly Cloudy
7:15 AM 30.2 °F 24.3 °F 26.6 °F 86% 29.72 in 10.0 mi ESE 5.8 mph - N/A   Mostly Cloudy
7:35 AM 32.0 °F 27.5 °F 26.6 °F 80% 29.71 in 10.0 mi SE 4.6 mph - N/A   Mostly Cloudy
7:55 AM 32.0 °F 26.4 °F 26.6 °F 80% 29.71 in 10.0 mi ESE 5.8 mph - N/A   Overcast
8:15 AM 33.8 °F 27.0 °F 26.6 °F 75% 29.71 in 10.0 mi SE 8.1 mph - N/A   Overcast
8:35 AM 33.8 °F 27.7 °F 26.6 °F 75% 29.70 in 10.0 mi SE 6.9 mph - N/A   Overcast
8:55 AM 33.8 °F 27.7 °F 26.6 °F 75% 29.69 in 10.0 mi SE 6.9 mph - N/A   Overcast
9:15 AM 35.6 °F 29.9 °F 28.4 °F 75% 29.68 in 10.0 mi SE 6.9 mph - N/A   Overcast
9:35 AM 35.6 °F 29.9 °F 26.6 °F 70% 29.67 in 10.0 mi SE 6.9 mph - N/A   Overcast
9:55 AM 35.6 °F 29.2 °F 26.6 °F 70% 29.67 in 10.0 mi ESE 8.1 mph - N/A   Overcast
10:15 AM 37.4 °F 30.8 °F 26.6 °F 65% 29.66 in 10.0 mi SE 9.2 mph - N/A   Overcast
10:35 AM 39.2 °F 32.5 °F 28.4 °F 65% 29.66 in 10.0 mi South 10.4 mph - N/A   Mostly Cloudy
10:55 AM 41.0 °F 32.8 °F 30.2 °F 65% 29.65 in 10.0 mi South 16.1 mph - N/A   Overcast
11:15 AM 41.0 °F 32.2 °F 28.4 °F 61% 29.64 in 10.0 mi South 18.4 mph 26.5 mph N/A   Overcast
11:35 AM 41.0 °F 31.6 °F 30.2 °F 65% 29.63 in 10.0 mi SSW 20.7 mph 29.9 mph N/A   Mostly Cloudy
11:55 AM 41.0 °F 32.8 °F 30.2 °F 65% 29.62 in 10.0 mi South 16.1 mph 32.2 mph N/A   Overcast
12:15 PM 41.0 °F 31.9 °F 30.2 °F 65% 29.61 in 10.0 mi South 19.6 mph 25.3 mph N/A   Mostly Cloudy
12:35 PM 41.0 °F 32.2 °F 30.2 °F 65% 29.61 in 10.0 mi SSW 18.4 mph 25.3 mph N/A   Overcast
12:55 PM 41.0 °F 31.9 °F 30.2 °F 65% 29.59 in 10.0 mi SSW 19.6 mph 28.8 mph N/A   Overcast
1:15 PM 42.8 °F 35.8 °F 30.2 °F 61% 29.59 in 10.0 mi South 13.8 mph 20.7 mph N/A   Overcast
1:35 PM 42.8 °F 35.8 °F 30.2 °F 61% 29.58 in 10.0 mi SSW 13.8 mph 23.0 mph N/A   Mostly Cloudy
1:55 PM 42.8 °F 34.0 °F 30.2 °F 61% 29.57 in 10.0 mi SSW 20.7 mph 26.5 mph N/A   Mostly Cloudy
2:15 PM 42.8 °F 34.8 °F 28.4 °F 57% 29.56 in 10.0 mi SSW 17.3 mph 25.3 mph N/A   Mostly Cloudy
2:35 PM 44.6 °F 38.1 °F 30.2 °F 57% 29.55 in 10.0 mi SSW 13.8 mph 27.6 mph N/A   Mostly Cloudy
2:55 PM 42.8 °F 36.6 °F 30.2 °F 61% 29.54 in 10.0 mi SSW 11.5 mph 21.9 mph N/A   Mostly Cloudy
3:15 PM 42.8 °F 36.6 °F 33.8 °F 70% 29.54 in 10.0 mi SSW 11.5 mph - N/A   Mostly Cloudy
3:35 PM 42.8 °F 35.1 °F 30.2 °F 61% 29.53 in 10.0 mi SSW 16.1 mph 20.7 mph N/A   Mostly Cloudy
3:57 PM 41.0 °F 32.5 °F 30.2 °F 65% 29.54 in 10.0 mi West 17.3 mph 21.9 mph N/A Thunderstorm Overcast
4:15 PM 35.6 °F 25.5 °F 30.2 °F 81% 29.55 in 7.0 mi West 17.3 mph 23.0 mph N/A   Overcast
4:35 PM 35.6 °F 25.9 °F 32.0 °F 87% 29.57 in 10.0 mi West 16.1 mph 20.7 mph N/A Thunderstorm Overcast
4:55 PM 33.8 °F 23.9 °F 32.0 °F 93% 29.55 in 0.8 mi NW 15.0 mph - N/A Snow Light Snow
5:15 PM 32.0 °F 22.1 °F 32.0 °F 100% 29.55 in 2.5 mi NNW 13.8 mph - N/A Snow Light Snow
5:36 PM 33.8 °F 27.0 °F 30.2 °F 87% 29.54 in 10.0 mi NNW 8.1 mph - N/A   Overcast
5:55 PM 33.8 °F 27.7 °F 32.0 °F 93% 29.56 in 10.0 mi WNW 6.9 mph - N/A   Mostly Cloudy
6:15 PM 33.8 °F 27.0 °F 32.0 °F 93% 29.56 in 10.0 mi WNW 8.1 mph - N/A   Overcast
6:35 PM 33.8 °F 26.4 °F 32.0 °F 93% 29.57 in 10.0 mi WNW 9.2 mph - N/A   Overcast
6:55 PM 33.8 °F 24.3 °F 30.2 °F 87% 29.58 in 10.0 mi WNW 13.8 mph - N/A   Overcast
7:15 PM 33.8 °F 23.9 °F 28.4 °F 81% 29.59 in 10.0 mi WNW 15.0 mph 20.7 mph N/A   Mostly Cloudy
7:35 PM 33.8 °F 21.9 °F 26.6 °F 75% 29.58 in 10.0 mi WNW 21.9 mph 27.6 mph N/A   Mostly Cloudy
7:55 PM 32.0 °F 18.6 °F 26.6 °F 80% 29.59 in 10.0 mi WNW 25.3 mph 32.2 mph N/A   Mostly Cloudy
8:15 PM 30.2 °F 16.8 °F 28.4 °F 93% 29.61 in 10.0 mi WNW 23.0 mph 27.6 mph N/A   Mostly Cloudy
8:35 PM 32.0 °F 19.8 °F 28.4 °F 87% 29.62 in 10.0 mi WNW 20.7 mph 26.5 mph N/A   Overcast
8:55 PM 32.0 °F 20.1 °F 26.6 °F 80% 29.63 in 10.0 mi WNW 19.6 mph - N/A   Overcast
9:16 PM 32.0 °F 19.2 °F 26.6 °F 80% 29.64 in 10.0 mi WNW 23.0 mph 27.6 mph N/A   Overcast
9:35 PM 30.2 °F 16.8 °F 26.6 °F 86% 29.66 in 10.0 mi WNW 23.0 mph - N/A   Overcast
9:55 PM 30.2 °F 17.8 °F 26.6 °F 86% 29.67 in 10.0 mi WNW 19.6 mph 25.3 mph N/A   Overcast
10:15 PM 30.2 °F 17.1 °F 24.8 °F 80% 29.69 in 10.0 mi WNW 21.9 mph 25.3 mph N/A   Overcast
10:35 PM 30.2 °F 17.1 °F 24.8 °F 80% 29.70 in 10.0 mi WNW 21.9 mph - N/A   Overcast
10:55 PM 30.2 °F 18.1 °F 24.8 °F 80% 29.71 in 10.0 mi WNW 18.4 mph 24.2 mph N/A   Overcast
11:15 PM 30.2 °F 18.9 °F 24.8 °F 80% 29.73 in 10.0 mi WNW 16.1 mph 26.5 mph N/A   Overcast
11:36 PM 30.2 °F 18.9 °F 26.6 °F 86% 29.74 in 10.0 mi NW 16.1 mph - N/A   Overcast
11:55 PM 30.2 °F 18.1 °F 26.6 °F 86% 29.75 in 10.0 mi NW 18.4 mph - N/A   Overcast